Location: Pebble Beach Sunset Acres
(33.0837°N, 96.4508°W)
Time: 13:34:27
(UTC+00:00)

Hubble Space Telescope - Visible Passes

Search period start: 23 September 2023 00:00
Search period end: 03 October 2023 00:00
Orbit: 522 x 525 km, 28.5° (Epoch: 22 September)

Date Brightness Start Highest point End Pass type
(mag) Time Alt. Az. Time Alt. Az. Time Alt. Az.
23 Sep 1.3 10:35:09 43° S 10:35:09 43° S 10:38:56 10° ESE visible
24 Sep 1.9 10:20:41 35° SE 10:20:41 35° SE 10:23:29 10° ESE visible
25 Sep 2.7 10:06:15 23° SE 10:06:15 23° SE 10:08:00 10° ESE visible
25 Sep 2.2 11:41:22 10° WSW 11:44:41 24° SSW 11:47:59 10° SE visible
26 Sep 3.4 09:51:51 14° ESE 09:51:51 14° ESE 09:52:30 10° ESE visible
26 Sep 2.3 11:26:54 14° WSW 11:29:11 21° SSW 11:32:18 10° SSE visible
27 Sep 2.4 11:12:33 17° SW 11:13:40 19° SSW 11:16:32 10° SSE visible
28 Sep 2.6 10:58:16 16° SSW 10:58:16 16° SSW 11:00:41 10° SSE visible
29 Sep 3.1 10:44:01 12° S 10:44:01 12° S 10:44:42 10° S visible
